Location: ??????
(56.0120°N, 39.1740°E)
Time: 19:50:54
(UTC+00:00)

ARIANE 6 FM1 Upper Stage - Pass Details

Date: 14 April 2026
Orbit: 526 x 601 km, 62.0° (Epoch: 19 May)

Event Time Altitude Azimuth Distance (km) Brightness Sun altitude
Rises 23:18:29 0° 303° (WNW) 2,679 6.2 -20.1°
Reaches altitude 10° 23:20:45 10° 296° (WNW) 1,781 5.2 -19.9°
Enters shadow 23:22:16 21° 285° (WNW) 1,238 4.2 -19.8°
